Погода в Рассвете

Россия / Тульская область     54°09′57″N   37°26′48″E
темп.,
°C
ветер,
м/с
пор.,
м/с
влажн.,
%
обл.,
%
осадки,
мм/ч
давл.,
гПа
погр.,
м
29 января, сб
сб2900:00−5ююв3896100 0.6 1005268
03:00−6ююв259789 0.8 1004102
06:00−7ю249885 0.2 100460
09:00−7ююз229896 0.3 100534
12:00−3юз239780 0.1 1005152
15:00−1зюз249496 0.4 1005371
18:00−2зсз2496100 0.1 1006156
21:00−2зсз2289100 0.2 100635
30 января, вс
вс3000:00−3зюз2394100 0.0 100578
03:00−4з3796100 0.2 1004306
06:00−8ююз4997100 0.1 1002209
09:00−8ю51394100 0.1 999318
12:00−6ю71490100 0.0 997580
15:00−5ю71495100 0.5 995765
18:00−4ю71493100 0.7 995697
21:00−5ю61392100 0.9 994498
31 января, пн
пн3100:00−5ююв51195100 0.3 994400
03:00−4ююв4109695 0.6 994370
06:00−5ююв3109693 0.1 993234
09:00−4юв51295100 0.1 993404
12:00−2ююв61396100 0.9 992809
15:00−1ююв51197100 2.0 990815
18:00−1ю41098100 1.3 990639
21:00−2ю4997100 2.5 990485
1 февраля, вт
вт100:00−3юз51196100 0.7 991449
03:00−4юз6129490 1.3 993412
06:00−5зюз6129493 0.1 995445
09:00−6юз51194100 0.3 998411
12:00−5юз61193100 0.1 999555
15:00−4юз6119296 0.2 1000746
18:00−6юз61291100 0.1 1002507
21:00−9юз5119482 0.1 1004274
2 февраля, ср
ср200:00−9юз4995100 0.0 1005237
03:00−9ююз4996100 0.1 1005232
06:00−11ю3898100 0.0 1006134
09:00−11ююз3897100 0.1 1006158
12:00−7ю3493100 0.0 1005219
15:00−6ю2390100 0.0 1004323
18:00−13юз119953 0.0 10069
21:00−17юз22100100 0.0 10089